Temp
10 10 9 9 9 9 8 8 8 8 8 7 7 7 6 6 6 6 6 5 5 6 5 5 5 5 4 4 4 3 4 4 4 5 5 4 3 3 3 2 2 2 2
9 9 9 9 9 8 8 8 7 7 7 7 6 6 6 6 5 6 5 6 5 5 5 5 5 5 4 4 4 4 4 4 3 4 4 4 3 3 2 2 2 2 2
9 9 8 8 8 8 8 7 7 7 6 6 6 6 6 5 5 5 5 5 5 5 5 5 5 5 4 4 4 4 3 3 3 3 3 3 2 2 2 2 2 2 2
8 8 8 8 8 8 7 7 7 7 6 5 5 5 5 5 5 5 5 5 5 5 4 4 4 4 4 4 4 4 3 3 3 3 3 3 2 2 2 2 3 3 3
8 8 8 7 7 7 7 7 6 6 5 5 5 5 5 5 5 4 4 4 4 4 4 4 4 3 3 2 2 3 3 3 2 2 3 2 2 3 3 3 2 2 2
8 8 7 7 7 6 6 6 5 6 5 5 5 5 5 4 4 4 3 3 4 4 4 4 3 2 2 1 1 1 1 2 2 2 2 3 3 3 2 2 2 2 2
7 6 6 6 6 5 5 5 5 5 4 4 5 4 4 4 4 3 3 2 3 3 2 2 2 2 1 1 1 1 1 1 1 1 2 2 3 3 2 2 2 1 1
6 6 5 5 5 5 5 5 4 4 4 4 3 3 2 2 3 2 1 1 2 2 1 1 1 1 1 0 0 0 1 1 1 1 1 1 1 2 1 1 1 0 -0
6 5 5 5 5 4 4 4 4 3 3 3 2 2 2 2 1 1 -0 1 1 1 1 1 0 0 -0 -0 -0 0 1 1 1 0 -1 -1 -0 -0 -0 -0 -0 0 1
5 4 4 4 4 4 4 3 3 2 1 1 1 1 0 0 -0 -1 -1 -0 0 1 1 1 0 0 -0 -0 -0 0 0 1 1 1 1 1 -0 -0 -0 -1 -0 -1 -0
3 4 4 4 4 4 3 2 1 1 1 1 1 1 0 -0 -1 -2 -2 -1 -0 -0 -0 0 0 -0 -1 -1 -1 -1 -1 -0 -0 -0 0 -0 -1 -1 -1 -1 -1 -2 -2
4 4 4 3 3 2 1 1 1 1 1 1 1 1 0 -0 -1 -2 -2 -2 -1 -1 -1 -0 -0 -1 -1 -1 -1 -1 -1 -1 -1 -1 -1 -1 -2 -2 -2 -2 -2 -3 -3
3 3 2 2 2 1 1 1 1 0 0 0 0 -0 -0 -1 -1 -2 -2 -2 -1 -1 -1 -1 -1 -2 -2 -2 -1 -2 -2 -2 -2 -2 -2 -2 -2 -3 -3 -3 -4 -4 -4
3 2 1 1 1 0 -0 -0 -1 -0 -1 -1 -1 -1 -1 -2 -2 -2 -2 -2 -2 -2 -1 -2 -2 -2 -2 -2 -2 -2 -2 -2 -2 -2 -2 -3 -3 -3 -3 -4 -4 -4 -4
2 1 1 0 -0 -0 -1 -1 -1 -1 -2 -2 -2 -2 -3 -3 -2 -3 -2 -3 -3 -2 -3 -3 -2 -2 -3 -3 -3 -3 -4 -4 -4 -4 -4 -3 -4 -4 -4 -4 -4 -4 -4
2 1 0 0 -0 -1 -1 -1 -2 -3 -3 -4 -4 -3 -3 -2 -2 -2 -3 -3 -3 -3 -3 -3 -3 -4 -4 -4 -4 -4 -4 -4 -4 -4 -5 -5 -5 -5 -5 -4 -4 -4 -3
0 -0 -0 -1 -1 -1 -1 -2 -2 -2 -3 -3 -3 -3 -3 -3 -3 -3 -3 -3 -3 -4 -4 -4 -5 -5 -5 -5 -5 -5 -5 -5 -5 -5 -5 -5 -5 -5 -5 -4 -4 -4 -4
-0 -0 -1 -1 -1 -2 -2 -2 -2 -2 -3 -3 -3 -3 -4 -4 -4 -4 -4 -4 -4 -4 -5 -5 -5 -5 -5 -5 -5 -5 -5 -5 -5 -5 -5 -5 -5 -5 -5 -4 -4 -4 -3
-1 -1 -2 -2 -2 -2 -2 -3 -3 -3 -4 -4 -3 -4 -4 -5 -4 -4 -5 -5 -5 -6 -5 -6 -6 -6 -6 -6 -6 -6 -6 -6 -6 -6 -6 -6 -5 -5 -5 -5 -4 -4 -3
-2 -2 -2 -2 -2 -2 -3 -3 -3 -4 -4 -4 -5 -5 -5 -5 -4 -5 -5 -6 -6 -6 -6 -6 -6 -6 -6 -6 -6 -6 -6 -6 -6 -6 -6 -6 -5 -5 -5 -5 -4 -3 -3
-2 -2 -3 -2 -3 -3 -3 -3 -4 -4 -4 -5 -6 -5 -5 -5 -5 -6 -6 -6 -6 -6 -6 -7 -7 -7 -7 -6 -6 -6 -6 -6 -6 -6 -6 -6 -6 -5 -5 -4 -4 -3 -3
-3 -3 -3 -3 -3 -3 -4 -4 -4 -4 -5 -5 -5 -5 -5 -6 -6 -7 -7 -7 -7 -7 -7 -7 -7 -7 -7 -7 -7 -7 -7 -6 -6 -6 -6 -6 -5 -5 -4 -4 -4 -4 -4
-3 -3 -3 -3 -4 -4 -4 -4 -4 -5 -5 -5 -5 -6 -6 -7 -7 -7 -7 -7 -7 -7 -7 -7 -7 -7 -7 -7 -6 -6 -6 -5 -5 -5 -6 -5 -5 -5 -4 -4 -4 -4 -4
-4 -4 -4 -4 -4 -4 -4 -5 -5 -5 -5 -6 -6 -6 -7 -7 -7 -7 -8 -8 -8 -7 -7 -7 -6 -6 -6 -5 -5 -5 -5 -5 -5 -5 -5 -5 -5 -5 -5 -5 -5 -5 -5
-4 -4 -4 -5 -5 -5 -5 -5 -5 -6 -6 -6 -7 -7 -7 -8 -8 -8 -8 -8 -8 -7 -7 -6 -6 -5 -5 -5 -5 -5 -5 -5 -5 -5 -5 -5 -5 -5 -5 -6 -6 -6 -6
-4 -5 -5 -5 -5 -6 -6 -6 -6 -6 -7 -7 -8 -8 -8 -8 -8 -8 -8 -8 -7 -7 -6 -6 -6 -5 -5 -5 -5 -5 -5 -6 -6 -5 -5 -5 -6 -6 -6 -6 -6 -6 -7
Height
801 804 806 809 810 812 813 813 815 817 817 818 819 821 822 823 822 822 822 822 821 819 817 816 814 813 810 809 808 805 803 800 794 789 788 786 784 781 778 777 774 772 769
801 803 806 808 810 811 812 813 815 816 817 819 820 821 822 822 822 821 821 820 818 816 814 812 810 807 805 804 802 799 797 794 791 785 783 781 779 777 774 772 770 767 764
799 802 805 808 809 811 812 813 814 816 817 817 819 820 820 820 820 820 819 816 814 811 809 807 804 802 800 797 796 794 791 787 785 781 776 777 774 771 769 767 765 763 761
799 802 805 806 808 810 811 812 814 815 816 817 818 818 818 818 818 816 814 812 810 807 804 801 799 796 794 791 789 786 784 781 779 776 771 770 769 766 764 762 759 758 756
798 800 803 805 806 808 809 811 813 814 815 816 816 817 817 816 815 813 810 808 805 802 799 796 792 790 787 784 782 779 777 774 773 770 766 765 763 761 758 756 754 752 750
797 800 801 804 806 808 809 811 812 813 814 814 815 815 815 813 811 809 806 804 800 796 792 790 787 783 780 777 774 772 771 768 765 763 761 758 756 755 753 752 750 748 745
796 799 802 804 806 808 810 811 812 813 813 814 814 813 811 810 807 804 801 798 795 791 788 784 780 777 774 771 767 764 761 760 758 757 753 751 749 749 748 746 745 744 742
797 800 803 805 807 808 810 811 812 812 813 812 811 809 807 805 802 799 796 793 789 785 783 779 776 772 769 766 762 758 754 752 749 748 746 744 744 744 743 742 740 738 735
800 802 804 806 807 809 810 810 811 811 811 810 807 805 803 801 798 794 791 788 784 780 777 774 771 767 763 761 757 752 747 743 742 741 739 738 737 737 737 736 734 731 726
802 803 806 807 808 809 809 810 809 809 807 805 803 801 799 797 794 791 788 784 780 775 772 768 766 762 759 755 751 746 741 737 735 733 731 730 729 729 729 730 729 727 723
804 805 806 807 809 809 809 808 807 806 804 803 801 799 796 794 791 788 785 782 778 772 767 763 760 757 753 749 745 741 736 732 729 727 723 721 721 721 723 724 724 723 719
805 807 808 808 808 808 808 807 806 804 802 800 798 795 793 791 788 785 782 780 776 770 765 759 755 751 747 742 738 734 730 727 724 722 720 719 718 719 719 718 717 716 713
807 807 808 808 808 807 807 806 804 802 800 798 795 792 790 788 785 781 778 775 771 767 761 755 751 746 742 737 734 729 726 724 722 719 717 716 716 715 714 712 710 708 705
807 807 807 808 808 807 806 805 804 802 799 796 793 790 787 785 783 779 774 770 766 761 755 750 746 743 739 735 730 727 725 722 719 716 714 712 711 710 708 707 704 702 699
806 807 807 807 807 806 805 804 802 800 798 794 791 789 786 782 780 776 771 766 762 756 751 747 742 738 734 731 728 725 723 720 717 715 712 710 707 706 703 702 699 696 693
806 807 807 806 806 804 803 801 800 796 794 791 789 786 783 779 775 771 767 762 757 752 748 743 739 736 733 730 727 723 720 717 715 712 710 707 705 702 699 697 694 691 688
805 805 805 804 804 802 801 799 796 793 791 788 785 783 780 775 771 768 763 758 753 749 746 742 738 735 731 728 724 721 717 715 712 709 707 704 701 698 695 692 690 687 683
803 803 803 803 802 800 798 796 794 791 787 785 782 780 776 772 768 764 760 755 750 747 744 740 736 733 730 726 722 719 715 712 709 706 703 700 697 695 691 689 686 682 679
801 802 801 800 799 798 796 794 792 789 786 782 778 776 774 770 765 761 757 753 749 745 742 738 735 731 727 724 720 716 713 709 706 703 700 697 694 691 688 685 681 678 675
800 799 798 798 796 795 793 791 787 785 783 782 778 774 770 767 762 758 755 751 747 743 739 736 732 728 724 721 717 713 709 706 703 699 696 693 690 687 684 681 678 675 672
799 798 796 795 794 792 791 789 787 785 781 779 777 772 769 765 761 757 753 749 745 741 737 733 729 725 721 718 714 710 706 703 699 696 693 690 687 684 681 678 675 673 672
797 797 796 795 793 790 788 786 783 782 780 775 773 769 766 763 760 756 751 747 742 739 735 730 726 722 719 715 711 707 704 700 696 693 690 687 685 682 679 677 675 673 672
793 793 792 791 789 787 784 784 781 778 776 772 770 767 764 761 757 753 749 744 740 736 732 728 724 720 716 712 709 705 702 698 694 691 688 685 683 681 679 677 675 674 674
790 790 789 788 785 785 782 779 778 775 773 770 767 764 762 758 754 750 746 741 737 733 729 725 722 718 715 712 708 705 701 698 694 690 687 684 682 681 679 678 677 676 675
786 786 784 783 781 779 780 776 775 773 770 767 765 762 759 755 751 747 743 739 735 732 728 724 721 718 715 711 708 705 701 698 694 691 688 686 684 682 681 680 678 677 677
783 782 780 778 779 776 776 773 772 769 767 764 761 759 755 752 749 745 742 738 734 730 727 724 721 717 714 711 708 705 702 698 695 691 689 687 685 684 682 681 680 680 679
Wind_Speed
9 8 7 6 6 5 5 5 5 5 6 6 5 5 4 3 4 5 5 6 8 11 12 13 15 14 15 15 16 17 18 18 16 22 21 19 19 18 16 15 15 16 15
9 8 7 6 6 5 5 4 5 5 4 4 4 4 4 4 5 6 7 9 12 14 15 15 17 15 17 18 18 20 21 20 21 23 22 21 20 17 17 17 16 14 14
8 8 7 7 6 5 4 4 4 4 3 3 4 4 4 5 6 7 9 13 15 16 17 18 19 19 20 19 20 22 22 22 22 23 23 21 20 18 18 17 15 15 15
8 8 7 7 6 5 4 4 3 3 3 3 4 5 6 6 8 11 13 16 17 18 18 19 20 21 22 22 23 24 25 24 24 23 23 22 20 18 17 17 16 14 16
9 8 7 6 6 5 4 4 3 2 2 3 4 5 6 9 12 14 16 18 20 21 21 21 22 23 27 28 27 27 26 24 22 22 21 21 20 19 17 15 17 18 18
8 8 8 7 7 5 4 4 3 1 1 2 3 5 8 10 14 18 19 20 21 22 24 24 24 25 25 25 26 29 31 29 27 24 22 21 23 22 20 18 18 18 11
10 9 9 8 7 6 5 3 2 1 1 2 5 7 10 12 18 20 21 20 21 21 22 23 23 22 23 24 25 25 26 27 31 31 29 28 26 24 22 21 20 19 20
12 11 9 9 8 6 5 4 3 1 3 5 8 10 12 14 18 19 20 19 19 20 20 21 22 23 22 22 23 24 25 25 25 25 27 29 27 25 22 21 22 24 24
12 11 9 8 8 6 5 3 2 4 6 8 10 12 13 15 16 18 17 18 18 20 20 20 21 22 23 23 24 25 25 26 23 23 25 27 25 24 24 23 21 19 18
11 10 9 8 7 4 2 3 5 6 8 11 12 12 14 14 14 15 15 16 19 21 21 22 21 21 22 24 25 26 25 27 24 24 24 23 21 20 20 17 19 20 20
11 11 9 6 2 1 3 5 6 8 10 11 12 13 12 12 13 15 15 16 18 22 24 24 23 23 25 27 27 27 27 27 27 26 26 23 20 14 13 15 16 19 21
10 7 4 2 1 3 5 6 8 9 11 13 13 13 12 13 14 15 16 18 20 22 25 25 25 26 29 28 27 25 24 22 20 19 16 12 12 12 14 16 17 20 24
6 4 2 1 3 5 6 7 9 9 11 13 14 15 15 15 16 16 18 20 22 23 24 26 28 23 21 21 22 19 12 12 12 14 14 14 14 13 15 18 19 20 24
3 2 1 2 3 5 5 6 8 10 12 14 15 17 18 18 17 18 21 22 23 24 25 24 16 20 21 20 17 17 17 16 15 17 17 17 15 15 17 18 18 19 20
2 1 2 2 4 6 6 6 7 9 10 15 17 17 16 17 19 23 24 25 26 25 22 24 21 20 19 19 18 17 16 14 14 13 14 16 18 18 17 17 17 18 17
1 0 2 4 5 6 8 10 9 12 13 13 12 13 17 21 22 24 25 25 26 25 23 19 17 17 16 17 17 17 15 14 14 16 18 16 17 17 16 16 16 17 16
1 1 3 4 6 8 9 11 14 14 13 13 14 16 20 20 22 23 24 24 24 20 17 17 17 17 18 18 17 16 17 17 16 16 16 16 15 15 16 15 15 15 16
2 3 3 5 6 8 9 12 13 15 17 16 14 18 17 17 20 22 22 22 17 16 16 17 18 18 17 17 17 16 16 16 16 15 15 15 15 14 15 15 15 15 15
3 3 5 6 7 8 10 11 13 14 14 16 19 15 14 18 21 19 18 15 16 17 17 17 17 18 18 17 17 17 17 16 17 16 16 15 14 14 15 14 15 17 16
4 5 6 6 8 9 10 12 13 12 14 17 15 14 17 21 20 19 16 16 17 18 18 18 18 18 19 18 17 17 17 16 16 15 15 14 14 13 14 15 14 13 10
4 5 6 7 9 10 10 13 13 13 14 14 14 15 19 20 18 17 17 18 18 18 19 19 19 20 19 18 17 17 16 16 16 15 15 14 13 13 13 13 11 7 5
5 6 7 9 11 12 12 13 13 12 13 14 15 16 18 16 16 16 18 19 18 17 18 19 20 18 17 16 16 16 17 16 16 14 13 13 12 11 11 9 6 4 2
5 6 8 10 11 13 12 13 13 11 14 14 14 16 16 16 16 17 18 18 18 19 18 17 16 16 15 15 14 14 14 16 16 16 14 12 10 9 8 6 3 3 4
6 7 9 13 13 13 12 12 13 12 13 14 13 15 15 15 16 17 17 17 17 18 16 15 14 14 15 15 15 15 15 15 15 14 11 8 7 6 5 4 4 4 4
6 7 10 10 11 11 12 12 12 12 13 13 13 14 14 15 15 15 16 16 16 16 16 15 14 14 14 13 14 15 15 14 12 11 9 6 5 5 5 4 3 3 3
7 8 9 9 11 10 11 11 11 11 14 12 13 13 13 14 14 14 15 15 15 16 15 15 14 15 12 12 14 14 14 14 12 11 8 7 5 5 4 4 4 4 4
Wind_Direction
171 174 181 192 198 197 195 202 197 202 208 210 220 226 224 240 265 276 281 295 302 302 298 294 289 283 276 276 273 269 264 261 266 278 280 282 285 287 287 288 290 289 289
170 174 176 185 192 191 189 190 198 193 206 208 221 229 245 262 275 283 289 297 299 298 297 290 283 285 277 277 272 268 266 265 266 274 280 282 281 281 283 285 288 282 283
172 173 178 184 183 180 180 186 193 194 200 228 236 245 262 279 284 290 297 298 295 289 285 284 284 282 277 275 273 270 269 268 264 266 272 275 276 279 282 280 278 281 281
174 175 178 178 172 168 169 174 189 207 216 235 253 270 282 285 293 301 301 298 295 290 288 285 285 282 280 280 277 273 271 268 266 265 268 272 274 277 275 277 284 282 285
180 175 166 157 158 159 163 178 195 210 228 261 282 287 285 294 302 307 305 300 297 295 293 290 287 283 282 283 275 274 272 270 267 266 269 271 273 273 267 278 283 288 289
172 159 153 148 149 152 151 155 171 200 265 277 275 289 297 298 301 310 309 302 299 295 294 294 292 291 289 288 283 275 268 267 265 263 267 268 273 275 277 276 281 289 292
144 135 135 139 137 134 141 139 135 146 192 281 297 301 303 305 311 315 311 305 300 297 296 297 298 298 296 294 292 288 281 273 262 264 266 267 272 272 275 278 278 282 279
121 124 127 128 128 129 126 123 111 33 316 306 307 311 310 310 315 317 315 308 301 299 300 300 300 302 303 302 300 294 286 279 270 263 260 263 267 271 272 276 277 278 281
113 114 120 124 124 120 106 62 351 320 313 307 311 315 314 312 312 318 320 311 305 304 304 304 304 304 306 306 303 294 289 283 279 269 265 263 262 264 265 269 273 285 285
111 114 116 113 104 86 36 329 313 314 313 316 314 311 306 312 317 323 327 318 310 311 312 310 309 308 308 307 302 297 291 286 285 281 273 268 262 262 261 268 280 282 284
117 112 104 101 96 356 328 320 321 321 318 315 312 314 312 312 317 327 330 324 316 314 312 311 310 312 312 308 301 297 290 290 288 281 272 267 265 257 265 268 270 268 274
112 114 115 97 354 334 331 331 328 325 323 322 320 318 317 319 319 321 324 320 315 311 309 307 308 312 314 312 308 301 302 304 304 301 298 295 290 284 284 277 271 273 270
133 123 106 11 351 345 341 333 332 331 326 323 321 321 321 323 322 321 319 318 316 310 307 304 304 308 315 317 318 313 314 315 311 304 300 295 289 286 286 286 286 283 279
130 101 36 24 347 337 335 337 332 328 325 322 321 319 321 320 320 322 320 321 319 313 311 309 311 310 311 310 309 310 308 306 302 299 298 297 293 292 290 289 285 283 278
105 62 4 336 335 333 329 319 322 321 317 315 313 314 313 312 315 317 320 320 315 317 325 319 311 311 318 320 320 316 315 313 307 303 303 300 298 297 290 287 283 279 276
160 237 329 332 326 320 320 321 317 317 317 312 308 304 308 308 313 318 320 318 319 322 322 316 323 322 319 320 316 312 309 303 302 304 300 294 289 288 287 287 282 278 279
210 312 324 321 321 323 321 319 321 321 315 307 303 305 312 311 317 318 320 323 320 324 322 322 321 318 315 315 313 313 312 309 307 300 295 295 294 290 290 289 286 282 280
293 310 305 313 315 314 317 317 316 316 319 318 314 315 314 319 320 319 324 324 325 327 323 320 316 318 317 314 312 310 308 308 305 301 296 293 292 291 291 288 286 282 283
274 291 307 308 307 308 311 311 314 315 313 311 317 320 322 325 324 323 326 328 324 320 320 317 318 313 310 310 309 308 305 304 304 303 300 297 295 292 290 288 287 289 289
275 296 305 301 305 308 309 313 316 313 314 314 315 319 324 325 328 327 328 327 321 318 316 316 315 312 311 311 311 309 308 307 304 301 299 297 297 294 291 292 291 293 302
285 300 310 306 306 310 309 314 316 312 313 312 309 316 323 327 321 322 323 322 322 319 316 314 313 313 312 313 310 308 306 304 302 300 299 298 299 298 299 299 300 302 307
298 308 310 309 310 306 306 309 310 308 312 312 312 318 324 323 320 319 320 321 321 317 315 313 312 312 311 310 309 308 307 306 307 307 303 303 304 304 309 312 315 320 343
285 287 299 305 309 305 303 306 307 304 312 315 312 320 321 320 319 318 319 321 321 320 321 319 317 319 323 325 327 325 320 325 329 325 314 310 311 317 324 331 352 18 9
268 287 305 307 304 309 300 302 301 302 312 317 312 316 314 316 317 317 319 322 324 325 330 330 334 342 347 349 350 349 343 342 340 337 339 341 341 354 10 25 27 21 16
255 288 315 311 304 302 300 302 297 301 310 312 309 311 313 315 316 318 321 324 329 332 338 346 348 346 351 357 357 355 353 350 352 358 7 14 14 7 3 10 13 12 9
264 288 307 305 296 295 295 296 295 304 309 306 308 309 313 314 316 319 321 324 331 336 340 343 347 349 343 353 360 1 2 1 3 8 11 9 9 11 12 23 26 23 23